Location: Antioch
(38.0049°N, 121.8058°W)
Time: 01:56:21
(UTC+00:00)

Cosmos 2208 Rocket - Pass Details

Date: 11 February 2026
Orbit: 749 x 802 km, 74.0° (Epoch: 13 March)

Event Time Altitude Azimuth Distance (km) Brightness Sun altitude
Rises 13:48:37 0° 338° (NNW) 3,306 7.0 -14.9°
Reaches altitude 10° 13:51:02 10° 335° (NNW) 2,377 6.2 -14.4°
Maximum altitude 13:56:23 64° 256° (WSW) 887 4.1 -13.4°
Drops below altitude 10° 14:01:43 10° 175° (S) 2,368 6.7 -12.3°
Sets 14:04:08 0° 172° (S) 3,292 7.5 -11.9°
